User: anonymous   Login
Location: Unspecified
(0.0000°N, 0.0000°E)
Time: 21:51:05
(UTC+00:00)
Language:

MAROC-TUBSAT - Orbit

View from above orbital plane
View from above orbital plane
View from above satellite
View from above satellite

Ground track
Ground track

The orbit data is extracted from the following two-line orbital elements,

1 27004U 01056D   17082.93410363 -.00000027 +00000-0 +18416-4 0  9996
2 27004 099.3408 225.2026 0019632 195.6575 274.9463 13.70121329764377
Epoch (UTC): 23 March 2017 22:25:06
Eccentricity: 0.0019632
inclination: 99.3408°
perigee height: 984 km
apogee height: 1013 km
right ascension of ascending node: 225.2026°
argument of perigee: 195.6575°
revolutions per day: 13.70121329
mean anomaly at epoch: 274.9463°
orbit number at epoch: 76437

The dashed part of the orbit path shows where the satellite is in the earth's shadow,  

DLR